Corpus Christi, TX

12:09 AM CDT on July 21, 2017 (GMT -0500)
Corpus Christi International

Weather History for KCRP - September, 2013

Change the Weather History Date:

Tuesday, September 10, 2013

  Actual Average Record
Temperature  
Mean Temperature 82 °F 82 °F  
Max Temperature 88 °F 91 °F 100 °F (1965)
Min Temperature 76 °F 73 °F 64 °F (1988)
Degree Days  
Heating Degree Days 0 0  
Month to date heating degree days 0 0  
Since 1 July heating degree days 0 0  
Cooling Degree Days 17 17  
Month to date cooling degree days 204 180  
Year to date cooling degree days 3217 2741  
Growing Degree Days 32 (Base 50)    
Moisture  
Dew Point 74 °F    
Average Humidity 74    
Maximum Humidity 85    
Minimum Humidity 63    
Precipitation  
Precipitation 0.79 in 0.18 in 3.74 in (1971)
Month to date precipitation 2.65 1.79  
Year to date precipitation 13.66 21.13  
Snow  
Snow 0.00 in - - ()
Month to date snowfall 0.0  
Since 1 July snowfall 0.0  
Since 1 September snowfall 0.0  
Snow Depth 0.00 in    
Sea Level Pressure  
Sea Level Pressure 29.97 in    
Wind  
Wind Speed 8 mph (SE)    
Max Wind Speed 22 mph    
Max Gust Speed 28 mph    
Visibility 8 miles    
Events Rain , Thunderstorm    
T = Trace of Precipitation, MM = Missing Value Source: NWS Daily Summary

Daily Weather History Graph

Daily Weather History Graph

Search for Another Location

Airport or City:

Trip Planner

Search our weather history database for the weather conditions in past years. The results will help you decide how hot, cold, wet, or windy it might be!

Date:

Astronomy

Sep. 10, 2013 Rise Set
Actual Time 7:13 AM CDT 7:40 PM CDT
Civil Twilight 6:49 AM CDT 8:03 PM CDT
Nautical Twilight 6:21 AM CDT 8:31 PM CDT
Astronomical Twilight 5:54 AM CDT 8:59 PM CDT
Moon 12:09 PM CDT (9/10) 11:15 PM CDT (9/10)
Length of Visible Light 13h 14m
Length of Day
12h 27m
Waxing Crescent, 28% of the Moon is Illuminated
Sep 10
Waxing Crescent
Sep 12
First Quarter
Sep 19
Full
Sep 26
Last Quarter
Oct 4
New

Hourly Weather History & Observations

Time (CDT) Temp. Heat Index Dew Point Humidity Pressure Visibility Wind Dir Wind Speed Gust Speed Precip Events Conditions
12:51 AM 79.0 °F - 73.9 °F 84% 29.93 in 10.0 mi SE 6.9 mph - N/A   Partly Cloudy
1:51 AM 79.0 °F - 73.9 °F 84% 29.93 in 10.0 mi ESE 5.8 mph - N/A   Partly Cloudy
2:51 AM 79.0 °F - 73.9 °F 84% 29.92 in 10.0 mi ESE 6.9 mph - N/A   Partly Cloudy
3:51 AM 79.0 °F - 73.0 °F 82% 29.92 in 10.0 mi Calm Calm - N/A   Partly Cloudy
4:51 AM 79.0 °F - 73.9 °F 84% 29.91 in 10.0 mi East 5.8 mph - N/A   Partly Cloudy
5:38 AM 78.8 °F - 73.4 °F 83% 29.94 in 4.0 mi SE 11.5 mph - 0.01 in Rain , Thunderstorm Thunderstorms and Rain
5:51 AM 78.1 °F - 73.9 °F 87% 29.94 in 7.0 mi ESE 12.7 mph - 0.04 in Rain , Thunderstorm Thunderstorms and Rain
6:35 AM 77.0 °F - 73.4 °F 89% 29.95 in 10.0 mi East 6.9 mph - 0.03 in Rain Rain
6:51 AM 78.1 °F - 73.9 °F 87% 29.95 in 9.0 mi ESE 8.1 mph - 0.07 in Rain Light Rain
7:39 AM 78.8 °F - 73.4 °F 83% 29.95 in 10.0 mi ESE 5.8 mph - 0.01 in Rain , Thunderstorm Light Thunderstorms and Rain
7:51 AM 78.1 °F - 73.0 °F 84% 29.96 in 10.0 mi East 5.8 mph - 0.01 in Rain , Thunderstorm Light Thunderstorms and Rain
8:51 AM 79.0 °F - 73.9 °F 84% 29.98 in 10.0 mi ESE 6.9 mph - 0.00 in   Overcast
9:15 AM 77.0 °F - 73.4 °F 89% 30.00 in 2.0 mi SSE 11.5 mph - 0.04 in Rain Heavy Rain
9:32 AM 77.0 °F - 73.4 °F 89% 30.00 in 6.0 mi South 9.2 mph - 0.07 in Rain , Thunderstorm Light Thunderstorms and Rain
9:51 AM 77.0 °F - 73.0 °F 88% 30.00 in 5.0 mi South 13.8 mph - 0.09 in Rain , Thunderstorm Light Thunderstorms and Rain
9:55 AM 75.2 °F - 73.4 °F 94% 30.00 in 9.0 mi South 13.8 mph - 0.00 in Rain Light Rain
10:16 AM 77.0 °F - 71.6 °F 83% 30.01 in 3.0 mi South 9.2 mph - 0.02 in Rain Heavy Rain
10:19 AM 77.0 °F - 73.4 °F 89% 30.00 in 2.0 mi South 13.8 mph 18.4 mph 0.04 in Rain Heavy Rain
10:40 AM 77.0 °F - 73.4 °F 89% 30.00 in 7.0 mi South 8.1 mph - 0.49 in   Mostly Cloudy
10:51 AM 78.1 °F - 73.0 °F 84% 30.01 in 7.0 mi SE 9.2 mph - 0.49 in   Mostly Cloudy
11:51 AM 79.0 °F - 75.0 °F 88% 30.02 in 8.0 mi South 6.9 mph - 0.04 in Rain Light Rain
12:51 PM 80.1 °F 85.1 °F 75.0 °F 85% 30.01 in 4.0 mi South 8.1 mph - 0.03 in Rain Heavy Rain
1:51 PM 82.9 °F 90.8 °F 75.9 °F 79% 29.98 in 10.0 mi SE 3.5 mph - 0.02 in Rain Light Rain
2:51 PM 88.0 °F 97.5 °F 75.0 °F 65% 29.96 in 10.0 mi ESE 17.3 mph 24.2 mph 0.00 in   Mostly Cloudy
3:51 PM 87.1 °F 94.5 °F 73.0 °F 63% 29.95 in 10.0 mi ESE 18.4 mph - N/A   Mostly Cloudy
4:51 PM 84.9 °F 92.1 °F 73.9 °F 69% 29.95 in 10.0 mi SE 11.5 mph - N/A   Mostly Cloudy
5:51 PM 82.9 °F 88.0 °F 72.0 °F 69% 29.96 in 10.0 mi ESE 10.4 mph - N/A   Scattered Clouds
6:51 PM 84.9 °F 92.1 °F 73.9 °F 69% 29.96 in 10.0 mi ESE 9.2 mph - N/A   Scattered Clouds
7:51 PM 84.0 °F 91.2 °F 73.9 °F 72% 29.97 in 10.0 mi ESE 10.4 mph - N/A   Scattered Clouds
8:51 PM 82.9 °F 89.4 °F 73.9 °F 74% 29.98 in 10.0 mi ESE 8.1 mph - N/A   Partly Cloudy
9:51 PM 82.0 °F 88.6 °F 75.0 °F 79% 30.00 in 10.0 mi SE 5.8 mph - N/A   Partly Cloudy
10:51 PM 80.1 °F 84.5 °F 73.9 °F 81% 30.00 in 10.0 mi Calm Calm - N/A   Partly Cloudy
11:51 PM 78.1 °F - 73.9 °F 87% 29.99 in 10.0 mi Calm Calm - N/A   Partly Cloudy